When you browse on this site, cookies collect data to enhance your experience and personalize the content and advertising you see.
Visit our Privacy Policy to learn more. By continuing to use the site, you agree to this use of cookies and data.
  • In United Kingdom
  • List of Countries
  • For 7 days
  • Water Temperature
  • Satellite Maps
  • Weather Map
  • Weather Widgets
  • user-avatar
    Login

    Hourly Weather Rio Branco

    Today, 20 January, Sunday

    Time Temperature Precipitation Wind Pressure Humidity
    00:00 +23°C° 0 mm 0 mps 746 mmHg 96%
    01:00 +23°C° 0 mm 0 mps 746 mmHg 96%
    02:00 +23°C° 0.5 mm 0 mps 746 mmHg 97%
    03:00 +23°C° 0.5 mm 0 mps 746 mmHg 97%
    04:00 +22°C° 0.5 mm 0 mps 745 mmHg 97%
    05:00 +23°C° 0 mm 0 mps 746 mmHg 97%
    06:00 +23°C° 0 mm 0 mps 747 mmHg 96%
    07:00 +24°C° 0 mm 0 mps 747 mmHg 95%
    08:00 +27°C° 1.2 mm 1 mps 747 mmHg 92%
    09:00 +28°C° 1.2 mm 1 mps 747 mmHg 90%
    10:00 +29°C° 1.2 mm 1 mps 747 mmHg 87%
    11:00 +30°C° 2.4 mm 1 mps 747 mmHg 85%
    12:00 +29°C° 2.4 mm 0 mps 746 mmHg 82%
    13:00 +30°C° 2.4 mm 0 mps 745 mmHg 79%
    14:00 +29°C° 1.2 mm 0 mps 745 mmHg 81%
    15:00 +29°C° 1.2 mm 0 mps 744 mmHg 83%
    16:00 +28°C° 1.2 mm 0 mps 743 mmHg 84%
    17:00 +27°C° 0.1 mm 0 mps 744 mmHg 87%
    18:00 +26°C° 0.1 mm 0 mps 744 mmHg 90%
    19:00 +25°C° 0.1 mm 0 mps 744 mmHg 94%
    20:00 +24°C° 0.3 mm 0 mps 745 mmHg 94%
    21:00 +24°C° 0.3 mm 0 mps 746 mmHg 94%
    22:00 +24°C° 0.3 mm 0 mps 746 mmHg 94%
    23:00 +24°C° 0.6 mm 0 mps 746 mmHg 95%

    Tomorrow, 21 January, Monday

    Time Temperature Precipitation Wind Pressure Humidity
    00:00 +23°C° 0.6 mm 0 mps 745 mmHg 96%
    01:00 +23°C° 0.6 mm 0 mps 745 mmHg 96%
    02:00 +23°C° 0 mm 0 mps 745 mmHg 96%
    03:00 +23°C° 0 mm 0 mps 745 mmHg 96%
    04:00 +23°C° 0 mm 0 mps 745 mmHg 96%
    05:00 +24°C° 0 mm 0 mps 746 mmHg 95%
    06:00 +24°C° 0 mm 0 mps 746 mmHg 94%
    07:00 +25°C° 0 mm 0 mps 747 mmHg 93%
    08:00 +26°C° 1.7 mm 0 mps 747 mmHg 92%
    09:00 +29°C° 1.7 mm 1 mps 747 mmHg 90%
    10:00 +30°C° 1.7 mm 1 mps 747 mmHg 89%
    11:00 +30°C° 2 mm 1 mps 746 mmHg 87%
    12:00 +31°C° 2 mm 1 mps 745 mmHg 84%
    13:00 +31°C° 2 mm 1 mps 745 mmHg 82%
    14:00 +31°C° 1.6 mm 1 mps 744 mmHg 82%
    15:00 +31°C° 1.6 mm 1 mps 744 mmHg 83%
    16:00 +31°C° 1.6 mm 1 mps 743 mmHg 83%
    17:00 +29°C° 0.3 mm 1 mps 744 mmHg 86%
    18:00 +26°C° 0.3 mm 0 mps 744 mmHg 90%
    19:00 +25°C° 0.3 mm 0 mps 745 mmHg 93%
    20:00 +25°C° 0 mm 0 mps 745 mmHg 93%
    21:00 +24°C° 0 mm 0 mps 746 mmHg 93%
    22:00 +24°C° 0 mm 0 mps 747 mmHg 93%
    23:00 +24°C° 0 mm 0 mps 746 mmHg 94%

    Day after tomorrow, 22 January, Tuesday

    Time Temperature Precipitation Wind Pressure Humidity
    00:00 +24°C° 0 mm 0 mps 746 mmHg 94%
    01:00 +23°C° 0 mm 0 mps 746 mmHg 94%
    02:00 +23°C° 0 mm 0 mps 746 mmHg 95%
    03:00 +23°C° 0 mm 0 mps 745 mmHg 95%
    04:00 +25°C° 0 mm 1 mps 745 mmHg 95%
    05:00 +23°C° 0.2 mm 0 mps 746 mmHg 95%
    06:00 +23°C° 0.2 mm 0 mps 747 mmHg 96%
    07:00 +24°C° 0.2 mm 0 mps 747 mmHg 96%
    08:00 +24°C° 0.2 mm 0 mps 747 mmHg 96%
    09:00 +26°C° 0.2 mm 1 mps 748 mmHg 95%
    10:00 +27°C° 0.2 mm 1 mps 748 mmHg 95%
    11:00 +28°C° 0.8 mm 1 mps 747 mmHg 91%
    12:00 +29°C° 0.8 mm 1 mps 747 mmHg 87%
    13:00 +31°C° 0.8 mm 1 mps 746 mmHg 82%
    14:00 +30°C° 1.2 mm 1 mps 745 mmHg 84%
    15:00 +28°C° 1.2 mm 0 mps 745 mmHg 85%
    16:00 +28°C° 1.2 mm 0 mps 744 mmHg 87%
    17:00 +26°C° 0.6 mm 0 mps 745 mmHg 90%
    18:00 +25°C° 0.6 mm 0 mps 745 mmHg 93%
    19:00 +24°C° 0.6 mm 0 mps 746 mmHg 96%
    20:00 +24°C° 0.8 mm 0 mps 746 mmHg 96%
    21:00 +24°C° 0.8 mm 0 mps 747 mmHg 96%
    22:00 +24°C° 0.8 mm 0 mps 747 mmHg 95%
    23:00 +26°C° 0.6 mm 1 mps 747 mmHg 96%

    23 January, Wednesday

    Time Temperature Precipitation Wind Pressure Humidity
    00:00 +25°C° 0.6 mm 1 mps 747 mmHg 97%
    01:00 +25°C° 0.6 mm 1 mps 746 mmHg 98%
    02:00 +25°C° 1.4 mm 1 mps 746 mmHg 99%
    03:00 +25°C° 1.4 mm 1 mps 746 mmHg 99%
    04:00 +25°C° 1.4 mm 1 mps 746 mmHg 99%
    05:00 +25°C° 1 mm 1 mps 747 mmHg 99%
    06:00 +23°C° 1 mm 0 mps 747 mmHg 98%
    07:00 +23°C° 1 mm 0 mps 748 mmHg 98%
    08:00 +24°C° 0.4 mm 0 mps 748 mmHg 98%
    09:00 +24°C° 0.4 mm 0 mps 748 mmHg 97%
    10:00 +25°C° 0.4 mm 0 mps 749 mmHg 97%
    11:00 +27°C° 0.5 mm 1 mps 748 mmHg 94%
    12:00 +28°C° 0.5 mm 1 mps 747 mmHg 91%
    13:00 +29°C° 0.5 mm 1 mps 746 mmHg 89%
    14:00 +29°C° 0.5 mm 1 mps 745 mmHg 86%
    15:00 +29°C° 0.5 mm 1 mps 745 mmHg 84%
    16:00 +30°C° 0.5 mm 1 mps 744 mmHg 82%
    17:00 +29°C° 0 mm 1 mps 744 mmHg 85%
    18:00 +27°C° 0 mm 1 mps 745 mmHg 89%
    19:00 +24°C° 0 mm 0 mps 745 mmHg 92%
    20:00 +24°C° 0 mm 0 mps 746 mmHg 93%
    21:00 +24°C° 0 mm 0 mps 746 mmHg 94%
    22:00 +24°C° 0 mm 0 mps 747 mmHg 95%
    23:00 +23°C° 0.2 mm 0 mps 746 mmHg 95%

    24 January, Thursday

    Time Temperature Precipitation Wind Pressure Humidity
    00:00 +23°C° 0.2 mm 0 mps 746 mmHg 95%
    01:00 +25°C° 0.2 mm 1 mps 745 mmHg 96%
    02:00 +23°C° 0.7 mm 0 mps 745 mmHg 96%
    03:00 +23°C° 0.7 mm 0 mps 745 mmHg 97%
    04:00 +22°C° 0.7 mm 0 mps 745 mmHg 98%
    05:00 +23°C° 0.4 mm 0 mps 746 mmHg 98%
    06:00 +23°C° 0.4 mm 0 mps 747 mmHg 98%
    07:00 +23°C° 0.4 mm 0 mps 747 mmHg 98%
    08:00 +26°C° 0.6 mm 1 mps 748 mmHg 97%
    09:00 +26°C° 0.6 mm 1 mps 748 mmHg 96%
    10:00 +27°C° 0.6 mm 1 mps 748 mmHg 95%
    11:00 +28°C° 1 mm 1 mps 747 mmHg 91%
    12:00 +27°C° 1 mm 0 mps 746 mmHg 87%
    13:00 +28°C° 1 mm 0 mps 746 mmHg 83%
    14:00 +28°C° 0.1 mm 0 mps 745 mmHg 81%
    15:00 +28°C° 0.1 mm 0 mps 744 mmHg 79%
    16:00 +28°C° 0.1 mm 0 mps 744 mmHg 78%
    17:00 +29°C° 0.3 mm 1 mps 744 mmHg 84%
    18:00 +28°C° 0.3 mm 1 mps 744 mmHg 90%
    19:00 +26°C° 0.3 mm 1 mps 744 mmHg 96%
    20:00 +26°C° 0 mm 1 mps 745 mmHg 96%
    21:00 +25°C° 0 mm 1 mps 745 mmHg 96%
    22:00 +25°C° 0 mm 1 mps 746 mmHg 96%
    23:00 +25°C° 0 mm 1 mps 745 mmHg 96%

    25 January, Friday

    Time Temperature Precipitation Wind Pressure Humidity
    00:00 +25°C° 0 mm 1 mps 745 mmHg 96%
    01:00 +24°C° 0 mm 1 mps 745 mmHg 96%
    02:00 +24°C° 0.1 mm 1 mps 745 mmHg 96%
    03:00 +24°C° 0.1 mm 1 mps 745 mmHg 97%
    04:00 +24°C° 0.1 mm 1 mps 745 mmHg 97%
    05:00 +25°C° 0 mm 1 mps 745 mmHg 95%
    06:00 +25°C° 0 mm 1 mps 746 mmHg 94%
    07:00 +26°C° 0 mm 1 mps 747 mmHg 92%
    08:00 +28°C° 0 mm 1 mps 747 mmHg 83%
    09:00 +30°C° 0 mm 1 mps 747 mmHg 74%
    10:00 +32°C° 0 mm 1 mps 747 mmHg 65%
    11:00 +33°C° 0.5 mm 1 mps 746 mmHg 66%
    12:00 +33°C° 0.5 mm 1 mps 745 mmHg 68%
    13:00 +33°C° 0.5 mm 1 mps 744 mmHg 70%
    14:00 +32°C° 2.3 mm 1 mps 743 mmHg 76%
    15:00 +31°C° 2.3 mm 1 mps 743 mmHg 83%
    16:00 +30°C° 2.3 mm 1 mps 742 mmHg 90%
    17:00 +29°C° 0.1 mm 1 mps 742 mmHg 92%
    18:00 +28°C° 0.1 mm 1 mps 743 mmHg 93%
    19:00 +25°C° 0.1 mm 0 mps 743 mmHg 95%
    20:00 +27°C° 0 mm 1 mps 744 mmHg 95%
    21:00 +27°C° 0 mm 1 mps 745 mmHg 96%
    22:00 +26°C° 0 mm 1 mps 745 mmHg 96%
    23:00 +26°C° 0 mm 1 mps 745 mmHg 96%
    Show more